Hourly Weather Kisszállás

Today, 29 October, Thursday

Time Temperature Precipitation Wind Pressure Humidity
00:00 +13°C° 0 mm 1 mps 751 mmHg 83%
01:00 +12°C° 0 mm 1 mps 751 mmHg 84%
02:00 +12°C° 0 mm 1 mps 751 mmHg 85%
03:00 +12°C° 0 mm 1 mps 751 mmHg 87%
04:00 +11°C° 0 mm 1 mps 750 mmHg 88%
05:00 +11°C° 0 mm 0 mps 751 mmHg 88%
06:00 +11°C° 0 mm 0 mps 751 mmHg 88%
07:00 +11°C° 0 mm 0 mps 751 mmHg 91%
08:00 +12°C° 0 mm 0 mps 751 mmHg 84%
09:00 +14°C° 0 mm 1 mps 751 mmHg 78%
10:00 +16°C° 0 mm 1 mps 751 mmHg 71%
11:00 +16°C° 0 mm 1 mps 751 mmHg 67%
12:00 +18°C° 0 mm 1 mps 751 mmHg 64%
13:00 +18°C° 0 mm 1 mps 751 mmHg 60%
14:00 +17°C° 0 mm 2 mps 751 mmHg 61%
15:00 +16°C° 0 mm 3 mps 751 mmHg 62%
16:00 +16°C° 0 mm 3 mps 751 mmHg 63%
17:00 +14°C° 0.5 mm 4 mps 751 mmHg 70%
18:00 +13°C° 0.5 mm 5 mps 752 mmHg 78%
19:00 +11°C° 0.5 mm 6 mps 752 mmHg 85%
20:00 +12°C° 0.8 mm 5 mps 753 mmHg 85%
21:00 +11°C° 0.8 mm 4 mps 753 mmHg 85%
22:00 +12°C° 0.8 mm 2 mps 753 mmHg 85%
23:00 +11°C° 0 mm 3 mps 753 mmHg 84%

Tomorrow, 30 October, Friday

Time Temperature Precipitation Wind Pressure Humidity
00:00 +10°C° 0 mm 4 mps 754 mmHg 83%
01:00 +10°C° 0 mm 4 mps 754 mmHg 82%
02:00 +8°C° 0 mm 4 mps 754 mmHg 81%
03:00 +8°C° 0 mm 4 mps 754 mmHg 80%
04:00 +7°C° 0 mm 5 mps 754 mmHg 80%
05:00 +7°C° 0 mm 4 mps 755 mmHg 79%
06:00 +7°C° 0 mm 4 mps 755 mmHg 79%
07:00 +8°C° 0 mm 3 mps 755 mmHg 78%
08:00 +9°C° 0 mm 3 mps 756 mmHg 71%
09:00 +11°C° 0 mm 4 mps 756 mmHg 64%
10:00 +12°C° 0 mm 4 mps 756 mmHg 57%
11:00 +12°C° 0 mm 3 mps 756 mmHg 60%
12:00 +13°C° 0 mm 3 mps 755 mmHg 63%
13:00 +13°C° 0 mm 3 mps 755 mmHg 66%
14:00 +12°C° 0.1 mm 3 mps 755 mmHg 70%
15:00 +12°C° 0.1 mm 3 mps 755 mmHg 74%
16:00 +12°C° 0.1 mm 3 mps 755 mmHg 78%
17:00 +12°C° 0.2 mm 3 mps 755 mmHg 80%
18:00 +11°C° 0.2 mm 3 mps 755 mmHg 81%
19:00 +11°C° 0.2 mm 3 mps 755 mmHg 83%
20:00 +11°C° 0 mm 3 mps 755 mmHg 82%
21:00 +12°C° 0 mm 4 mps 755 mmHg 80%
22:00 +12°C° 0 mm 4 mps 755 mmHg 79%
23:00 +12°C° 0 mm 4 mps 755 mmHg 78%

Day after tomorrow, 31 October, Saturday

Time Temperature Precipitation Wind Pressure Humidity
00:00 +12°C° 0 mm 4 mps 754 mmHg 78%
01:00 +12°C° 0 mm 5 mps 754 mmHg 77%
02:00 +12°C° 0 mm 5 mps 754 mmHg 78%
03:00 +12°C° 0 mm 5 mps 754 mmHg 78%
04:00 +12°C° 0 mm 5 mps 754 mmHg 79%
05:00 +13°C° 0 mm 6 mps 753 mmHg 79%
06:00 +13°C° 0 mm 6 mps 753 mmHg 79%
07:00 +13°C° 0 mm 6 mps 753 mmHg 79%
08:00 +12°C° 0 mm 7 mps 753 mmHg 76%
09:00 +14°C° 0 mm 7 mps 753 mmHg 73%
10:00 +15°C° 0 mm 8 mps 754 mmHg 71%
11:00 +16°C° 0 mm 7 mps 753 mmHg 69%
12:00 +16°C° 0 mm 6 mps 753 mmHg 66%
13:00 +17°C° 0 mm 6 mps 753 mmHg 64%
14:00 +16°C° 0 mm 5 mps 753 mmHg 67%
15:00 +16°C° 0 mm 3 mps 753 mmHg 70%
16:00 +16°C° 0 mm 2 mps 753 mmHg 73%
17:00 +15°C° 0 mm 2 mps 753 mmHg 73%
18:00 +14°C° 0 mm 2 mps 754 mmHg 73%
19:00 +14°C° 0 mm 2 mps 754 mmHg 73%
20:00 +13°C° 0 mm 2 mps 754 mmHg 71%
21:00 +11°C° 0 mm 3 mps 754 mmHg 70%
22:00 +11°C° 0 mm 3 mps 755 mmHg 68%
23:00 +10°C° 0 mm 3 mps 755 mmHg 68%

1 November, Sunday

Time Temperature Precipitation Wind Pressure Humidity
00:00 +10°C° 0 mm 3 mps 755 mmHg 67%
01:00 +9°C° 0 mm 2 mps 755 mmHg 67%
02:00 +9°C° 0 mm 2 mps 755 mmHg 68%
03:00 +8°C° 0 mm 2 mps 755 mmHg 70%
04:00 +8°C° 0 mm 2 mps 755 mmHg 72%
05:00 +8°C° 0 mm 2 mps 755 mmHg 73%
06:00 +7°C° 0 mm 2 mps 755 mmHg 74%
07:00 +7°C° 0 mm 2 mps 755 mmHg 75%
08:00 +8°C° 0 mm 2 mps 755 mmHg 69%
09:00 +10°C° 0 mm 2 mps 755 mmHg 62%
10:00 +12°C° 0 mm 2 mps 755 mmHg 55%
11:00 +13°C° 0 mm 2 mps 755 mmHg 53%
12:00 +14°C° 0 mm 2 mps 755 mmHg 51%
13:00 +15°C° 0 mm 1 mps 755 mmHg 50%
14:00 +14°C° 0 mm 1 mps 754 mmHg 52%
15:00 +14°C° 0 mm 1 mps 754 mmHg 55%
16:00 +13°C° 0 mm 1 mps 754 mmHg 57%
17:00 +12°C° 0 mm 1 mps 754 mmHg 59%
18:00 +11°C° 0 mm 1 mps 754 mmHg 62%
19:00 +10°C° 0 mm 1 mps 754 mmHg 64%
20:00 +10°C° 0 mm 1 mps 754 mmHg 65%
21:00 +10°C° 0 mm 1 mps 754 mmHg 66%
22:00 +9°C° 0 mm 1 mps 754 mmHg 66%
23:00 +8°C° 0 mm 2 mps 754 mmHg 67%

2 November, Monday

Time Temperature Precipitation Wind Pressure Humidity
00:00 +8°C° 0 mm 2 mps 754 mmHg 67%
01:00 +8°C° 0 mm 2 mps 754 mmHg 68%
02:00 +8°C° 0 mm 2 mps 754 mmHg 69%
03:00 +7°C° 0 mm 2 mps 754 mmHg 69%
04:00 +7°C° 0 mm 2 mps 754 mmHg 70%
05:00 +7°C° 0 mm 2 mps 754 mmHg 70%
06:00 +7°C° 0 mm 2 mps 754 mmHg 70%
07:00 +7°C° 0 mm 2 mps 754 mmHg 70%
08:00 +9°C° 0 mm 2 mps 754 mmHg 64%
09:00 +12°C° 0 mm 2 mps 754 mmHg 58%
10:00 +13°C° 0 mm 2 mps 754 mmHg 52%
11:00 +14°C° 0 mm 2 mps 754 mmHg 50%
12:00 +15°C° 0 mm 2 mps 754 mmHg 48%
13:00 +16°C° 0 mm 2 mps 753 mmHg 46%
14:00 +16°C° 0 mm 2 mps 753 mmHg 49%
15:00 +15°C° 0 mm 2 mps 753 mmHg 51%
16:00 +15°C° 0 mm 1 mps 752 mmHg 54%
17:00 +14°C° 0 mm 2 mps 753 mmHg 56%
18:00 +13°C° 0 mm 2 mps 753 mmHg 57%
19:00 +13°C° 0 mm 2 mps 753 mmHg 59%
20:00 +13°C° 0 mm 2 mps 752 mmHg 59%
21:00 +12°C° 0 mm 2 mps 752 mmHg 60%
22:00 +12°C° 0 mm 2 mps 752 mmHg 60%
23:00 +12°C° 0 mm 2 mps 752 mmHg 60%

3 November, Tuesday

Time Temperature Precipitation Wind Pressure Humidity
00:00 +12°C° 0 mm 2 mps 752 mmHg 61%
01:00 +12°C° 0 mm 2 mps 752 mmHg 61%
02:00 +12°C° 0 mm 2 mps 752 mmHg 61%
03:00 +12°C° 0 mm 2 mps 751 mmHg 61%
04:00 +12°C° 0 mm 2 mps 751 mmHg 61%
05:00 +12°C° 0 mm 2 mps 751 mmHg 62%
06:00 +12°C° 0 mm 2 mps 751 mmHg 63%
07:00 +11°C° 0 mm 3 mps 752 mmHg 64%
08:00 +12°C° 0 mm 2 mps 752 mmHg 64%
09:00 +12°C° 0 mm 2 mps 752 mmHg 64%
10:00 +13°C° 0 mm 2 mps 752 mmHg 63%
11:00 +12°C° 0.4 mm 2 mps 752 mmHg 68%
12:00 +12°C° 0.4 mm 2 mps 752 mmHg 72%
13:00 +12°C° 0.4 mm 2 mps 752 mmHg 77%
14:00 +12°C° 0.4 mm 1 mps 752 mmHg 79%
15:00 +11°C° 0.4 mm 1 mps 752 mmHg 81%
16:00 +11°C° 0.4 mm 1 mps 752 mmHg 83%
17:00 +11°C° 0 mm 1 mps 752 mmHg 84%
18:00 +11°C° 0 mm 1 mps 752 mmHg 85%
19:00 +10°C° 0 mm 2 mps 752 mmHg 86%
20:00 +10°C° 0 mm 2 mps 753 mmHg 87%
21:00 +10°C° 0 mm 2 mps 753 mmHg 87%
22:00 +11°C° 0 mm 1 mps 753 mmHg 88%
23:00 +11°C° 0.2 mm 1 mps 753 mmHg 89%
Show more